COSMOS 1691 DEB, 16271

Orbit data source: Space-Track

COSMOS 1691 DEB, 16271 is space debris in LEO originally from a launch on Wed, 09 Oct 1985 UTC launched from the Plesetsk Missile And Space Complex (PKMTR). Debris objects in space refer to the collection of defunct objects orbiting the Earth. Examples of debris include non-operational satellites, rocket bodies, and fragments generated from explosions, collisions, or faulty payload assembly.

Loading next visibility...
Identifier
16271, 1985-094Q
Orbit
LEO
Country
Flag of CISCIS
Related business
Manufacturer
Unknown
Mission
Spacecraft
Bus & Motor
Unknown
Mass
Unknown
Launch date (UTC)
1985-10-09 (41 years ago)
Launch vehicle
Unknown
Launch site
Plesetsk Missile And Space Complex (PKMTR)
Object type
Payload
Rocket body
Debris
Shape & HBR
Unknown shape, 0.1 m
Radar Cross Section
Small (<0.1 m²)

Expand to show TLE details & history
Last TLE update: 2 days ago

TLE from 2 days ago
0 COSMOS 1691 DEB
1 16271U 85094Q   26125.44116414  .00000009  00000-0 -69522-5 0  9993
2 16271  82.6047 301.5882 0005030 222.3687 166.1746 12.63029491870116
Epoch: 2026-05-05T10:35Z
TLE epoch observation values (Epoch: 2026-05-05T10:35:16.581Z)
Latitude
28.33833°
Longitude
-76.55278°
Altitude
1,417.627 km
Speed
7.153 km/s
True Right ascension
20h 22m 19s
True Declination
28° 12' 25"
Sunlit
Object was in daylight at epoch
Visualization orbit readout
Latitude
Unknown
Longitude
Unknown
Altitude
Unknown
Speed
Unknown
Apparent Right ascension
Unknown
Apparent Declination
Unknown
Sunlit
N/A
Visualization observer readout
Local Sidereal Time
19:52:52
Azimuth
Unknown
Elevation
Unknown
Doppler factor
Unknown
Orbital elements
Apogee altitude
1,411.7 km
Perigee altitude
1,403.867 km
Semi-major axis
7,785.921 km
Eccentricity
0.0005
Inclination
82.6047°
RAAN
301.5882°
Arg. of periapsis
222.3687°
True anomaly
166.18837°
Mean anomaly
166.1746°
Eccentric anomaly
166.18148°
Mean motion
3.15921 °/min
Orbital period
113.95 mins
BSTAR
-0.0000069522
Loading maneuver chart data...
Computing Atmospheric mass density...
Loading historical data...
Loading historical data...
Loading historical data...
Loading historical data...
Loading historical data...
Loading historical data...
Loading historical data...

Documentation

Showing up to 5 results
|